This is the latest recevied weather packets stored in our database for station/object KQ4NAL. If no packets are shown the sender has not sent any weather packets the latest 10 day(s).
| Time | Temp. | Humidity | Pressure | Rain* | Wind** | Luminosity | Snow |
|---|---|---|---|---|---|---|---|
| 1777648535 | 10.56° C | 74% | 1014.3 hPa | 0 mm | - | 98 W/m² | - |
| 1777648232 | 11.11° C | 73% | 1014.4 hPa | 0 mm | - | 81 W/m² | - |
| 1777647927 | 11.11° C | 73% | 1014.2 hPa | 0 mm | - | 81 W/m² | - |
| 1777647624 | 11.11° C | 72% | 1014.5 hPa | 0 mm | - | 90 W/m² | - |
| 1777647320 | 11.11° C | 72% | 1014.2 hPa | 0 mm | - | 121 W/m² | - |
| 1777647019 | 11.11° C | 73% | 1014.1 hPa | 0 mm | - | 140 W/m² | - |
| 1777646714 | 11.11° C | 71% | 1014.1 hPa | 0 mm | - | 131 W/m² | - |
| 1777646409 | 11.11° C | 71% | 1014 hPa | 0 mm | - | 131 W/m² | - |
| 1777646106 | 11.11° C | 71% | 1013.9 hPa | 0 mm | - | 151 W/m² | - |
| 1777645803 | 11.11° C | 70% | 1014.3 hPa | 0 mm | - | 118 W/m² | - |
| 1777645501 | 11.11° C | 70% | 1014 hPa | 0 mm | - | 91 W/m² | - |
| 1777645196 | 10.56° C | 71% | 1014 hPa | 0 mm | - | 89 W/m² | - |
| 1777644892 | 11.11° C | 73% | 1014 hPa | 0 mm | - | 130 W/m² | - |
| 1777644590 | 10.56° C | 74% | 1013.8 hPa | 0 mm | - | 115 W/m² | - |
| 1777644286 | 10.56° C | 76% | 1013.9 hPa | 0 mm | - | 140 W/m² | - |
| 1777643982 | 10.56° C | 75% | 1013.8 hPa | 0 mm | - | 142 W/m² | - |
| 1777643679 | 10.56° C | 76% | 1013.8 hPa | 0 mm | - | 81 W/m² | - |
| 1777643377 | 10.56° C | 76% | 1013.9 hPa | 0 mm | - | 93 W/m² | - |
| 1777643073 | 10° C | 77% | 1013.6 hPa | 0 mm | - | 137 W/m² | - |
| 1777642770 | 10° C | 78% | 1013.8 hPa | 0 mm | - | 134 W/m² | - |
| 1777642467 | 10° C | 78% | 1013.8 hPa | 0 mm | - | 130 W/m² | - |
| 1777642163 | 9.44° C | 78% | 1013.6 hPa | 0 mm | - | 118 W/m² | - |
| 1777641861 | 9.44° C | 78% | 1013.7 hPa | 0 mm | - | 82 W/m² | - |
| 1777641560 | 9.44° C | 79% | 1013.7 hPa | 0 mm | - | 111 W/m² | - |
| 1777641255 | 9.44° C | 80% | 1013.8 hPa | 0 mm | - | 118 W/m² | - |
* Rain latest hour (hover to see other rain measurements)
** Current wind speed in m/s (hover to see current wind gust speed)